Time,TemperatureF,DewpointF,PressureIn,WindDirection,WindDirectionDegrees,WindSpeedMPH,WindSpeedGustMPH,Humidity,HourlyPrecipIn,Conditions,Clouds,dailyrainin,SoftwareType,DateUTC
2013-02-02 00:14:00,24.4,11.0,30.18,NE,45,0.0,-999.0,56,-99.99,,,0.00,Acu-Link.com,2013-02-02 05:14:00,
2013-02-02 00:29:00,24.4,11.8,30.18,South,180,0.0,-999.0,58,-99.99,,,0.00,Acu-Link.com,2013-02-02 05:29:00,
2013-02-02 00:45:00,23.9,12.4,30.18,NE,45,0.0,-999.0,61,-99.99,,,0.00,Acu-Link.com,2013-02-02 05:45:00,
2013-02-02 01:00:00,23.7,11.9,30.17,NNW,337,0.0,-999.0,60,-99.99,,,0.00,Acu-Link.com,2013-02-02 06:00:00,
2013-02-02 01:15:00,23.9,11.7,30.18,ESE,112,2.2,-999.0,59,-99.99,,,0.00,Acu-Link.com,2013-02-02 06:15:00,
2013-02-02 01:31:00,23.9,11.7,30.17,NW,315,1.1,-999.0,59,-99.99,,,0.00,Acu-Link.com,2013-02-02 06:31:00,
2013-02-02 01:46:00,23.9,10.9,30.16,NNE,22,1.1,-999.0,57,-99.99,,,0.00,Acu-Link.com,2013-02-02 06:46:00,
2013-02-02 02:02:00,23.9,11.7,30.17,NE,45,0.0,-999.0,59,-99.99,,,0.00,Acu-Link.com,2013-02-02 07:02:00,
2013-02-02 02:17:00,23.5,11.3,30.16,ENE,67,0.0,-999.0,59,-99.99,,,0.00,Acu-Link.com,2013-02-02 07:17:00,
2013-02-02 02:33:00,23.4,12.0,30.16,NE,45,0.0,-999.0,61,-99.99,,,0.00,Acu-Link.com,2013-02-02 07:33:00,
2013-02-02 02:48:00,23.2,11.4,30.16,NNE,22,1.7,-999.0,60,-99.99,,,0.00,Acu-Link.com,2013-02-02 07:48:00,
2013-02-02 03:19:00,23.4,12.7,30.17,NE,45,0.0,-999.0,63,-99.99,,,0.00,Acu-Link.com,2013-02-02 08:19:00,
2013-02-02 03:35:00,22.8,12.1,30.17,SW,225,0.0,-999.0,63,-99.99,,,0.00,Acu-Link.com,2013-02-02 08:35:00,
2013-02-02 03:50:00,22.3,12.7,30.17,SSW,202,0.0,-999.0,66,-99.99,,,0.00,Acu-Link.com,2013-02-02 08:50:00,
2013-02-02 04:16:00,21.9,12.7,30.17,North,0,0.0,-999.0,67,-99.99,,,0.00,Acu-Link.com,2013-02-02 09:16:00,
2013-02-02 04:31:00,21.7,12.8,30.17,NW,315,0.0,-999.0,68,-99.99,,,0.00,Acu-Link.com,2013-02-02 09:31:00,
2013-02-02 04:47:00,21.4,12.2,30.17,SE,135,0.0,-999.0,67,-99.99,,,0.00,Acu-Link.com,2013-02-02 09:47:00,
2013-02-02 05:02:00,20.8,11.9,30.17,SSE,157,0.0,-999.0,68,-99.99,,,0.00,Acu-Link.com,2013-02-02 10:02:00,
2013-02-02 05:17:00,20.3,12.1,30.17,SE,135,0.0,-999.0,70,-99.99,,,0.00,Acu-Link.com,2013-02-02 10:17:00,
2013-02-02 05:32:00,19.9,12.4,30.16,SE,135,0.0,-999.0,72,-99.99,,,0.00,Acu-Link.com,2013-02-02 10:32:00,
2013-02-02 05:47:00,19.8,13.2,30.16,ESE,112,0.0,-999.0,75,-99.99,,,0.00,Acu-Link.com,2013-02-02 10:47:00,
2013-02-02 06:03:00,19.6,13.6,30.16,SE,135,0.0,-999.0,77,-99.99,,,0.00,Acu-Link.com,2013-02-02 11:03:00,
2013-02-02 06:18:00,18.9,13.2,30.16,WNW,292,1.7,-999.0,78,-99.99,,,0.00,Acu-Link.com,2013-02-02 11:18:00,
2013-02-02 06:33:00,19.6,13.0,30.16,NNE,22,0.0,-999.0,75,-99.99,,,0.00,Acu-Link.com,2013-02-02 11:33:00,
2013-02-02 06:49:00,19.4,13.4,30.17,South,180,0.0,-999.0,77,-99.99,,,0.00,Acu-Link.com,2013-02-02 11:49:00,
2013-02-02 07:04:00,19.2,13.5,30.17,SE,135,0.0,-999.0,78,-99.99,,,0.00,Acu-Link.com,2013-02-02 12:04:00,
2013-02-02 07:20:00,19.0,13.6,30.16,ESE,112,0.0,-999.0,79,-99.99,,,0.00,Acu-Link.com,2013-02-02 12:20:00,
2013-02-02 07:35:00,19.0,13.9,30.16,SW,225,0.0,-999.0,80,-99.99,,,0.00,Acu-Link.com,2013-02-02 12:35:00,
2013-02-02 07:50:00,19.0,14.1,30.16,West,270,0.0,-999.0,81,-99.99,,,0.00,Acu-Link.com,2013-02-02 12:50:00,
2013-02-02 08:05:00,19.4,15.1,30.17,SW,225,0.0,-999.0,83,-99.99,,,0.00,Acu-Link.com,2013-02-02 13:05:00,
2013-02-02 08:21:00,20.5,14.5,30.17,SSE,157,0.0,-999.0,77,-99.99,,,0.00,Acu-Link.com,2013-02-02 13:21:00,
2013-02-02 08:36:00,22.3,12.7,30.16,NE,45,0.0,-999.0,66,-99.99,,,0.00,Acu-Link.com,2013-02-02 13:36:00,
2013-02-02 08:51:00,24.3,13.5,30.17,West,270,1.7,-999.0,63,-99.99,,,0.00,Acu-Link.com,2013-02-02 13:51:00,
2013-02-02 09:07:00,26.6,14.2,30.17,SSW,202,2.2,-999.0,59,-99.99,,,0.00,Acu-Link.com,2013-02-02 14:07:00,
2013-02-02 09:22:00,28.0,13.1,30.16,WSW,247,2.2,-999.0,53,-99.99,,,0.00,Acu-Link.com,2013-02-02 14:22:00,
2013-02-02 09:37:00,31.1,15.1,30.15,NNE,22,2.7,-999.0,51,-99.99,,,0.00,Acu-Link.com,2013-02-02 14:37:00,
2013-02-02 09:53:00,32.5,14.5,30.15,North,0,1.7,-999.0,47,-99.99,,,0.00,Acu-Link.com,2013-02-02 14:53:00,
2013-02-02 10:08:00,31.1,13.3,30.15,NE,45,1.7,-999.0,47,-99.99,,,0.00,Acu-Link.com,2013-02-02 15:08:00,
2013-02-02 10:23:00,30.4,13.6,30.15,NNE,22,0.0,-999.0,49,-99.99,,,0.00,Acu-Link.com,2013-02-02 15:23:00,
2013-02-02 10:38:00,32.4,14.4,30.13,WSW,247,2.2,-999.0,47,-99.99,,,0.00,Acu-Link.com,2013-02-02 15:38:00,
2013-02-02 10:54:00,34.3,15.2,30.13,ESE,112,2.2,-999.0,45,-99.99,,,0.00,Acu-Link.com,2013-02-02 15:54:00,
2013-02-02 11:09:00,34.0,14.9,30.12,West,270,2.2,-999.0,45,-99.99,,,0.00,Acu-Link.com,2013-02-02 16:09:00,
2013-02-02 11:24:00,34.0,14.4,30.11,SE,135,1.7,-999.0,44,-99.99,,,0.00,Acu-Link.com,2013-02-02 16:24:00,
2013-02-02 11:40:00,35.4,14.1,30.09,NW,315,3.2,-999.0,41,-99.99,,,0.00,Acu-Link.com,2013-02-02 16:40:00,
2013-02-02 11:55:00,38.1,18.1,30.08,West,270,2.2,-999.0,44,-99.99,,,0.00,Acu-Link.com,2013-02-02 16:55:00,
2013-02-02 12:10:00,37.6,13.7,30.06,ESE,112,2.2,-999.0,37,-99.99,,,0.00,Acu-Link.com,2013-02-02 17:10:00,
2013-02-02 12:26:00,39.2,15.1,30.05,West,270,4.7,-999.0,37,-99.99,,,0.00,Acu-Link.com,2013-02-02 17:26:00,
2013-02-02 12:41:00,37.9,14.6,30.03,NNE,22,2.7,-999.0,38,-99.99,,,0.00,Acu-Link.com,2013-02-02 17:41:00,
2013-02-02 12:56:00,40.5,16.3,30.01,South,180,3.7,-999.0,37,-99.99,,,0.00,Acu-Link.com,2013-02-02 17:56:00,
2013-02-02 13:11:00,39.6,14.2,30.01,West,270,3.7,-999.0,35,-99.99,,,0.00,Acu-Link.com,2013-02-02 18:11:00,
2013-02-02 13:27:00,39.9,15.1,30.00,NNW,337,1.7,-999.0,36,-99.99,,,0.00,Acu-Link.com,2013-02-02 18:27:00,
2013-02-02 13:42:00,40.5,15.7,29.98,West,270,2.7,-999.0,36,-99.99,,,0.00,Acu-Link.com,2013-02-02 18:42:00,
2013-02-02 13:58:00,41.2,15.6,29.96,WNW,292,4.2,-999.0,35,-99.99,,,0.00,Acu-Link.com,2013-02-02 18:58:00,
2013-02-02 14:13:00,41.9,16.9,29.96,NNW,337,3.2,-999.0,36,-99.99,,,0.00,Acu-Link.com,2013-02-02 19:13:00,
2013-02-02 14:28:00,41.7,17.4,29.95,West,270,3.2,-999.0,37,-99.99,,,0.00,Acu-Link.com,2013-02-02 19:28:00,
2013-02-02 14:44:00,42.1,16.4,29.94,West,270,4.7,-999.0,35,-99.99,,,0.00,Acu-Link.com,2013-02-02 19:44:00,
2013-02-02 14:59:00,41.2,16.3,29.94,SE,135,4.2,-999.0,36,-99.99,,,0.00,Acu-Link.com,2013-02-02 19:59:00,
2013-02-02 15:14:00,43.0,18.5,29.92,WNW,292,4.2,-999.0,37,-99.99,,,0.00,Acu-Link.com,2013-02-02 20:14:00,
2013-02-02 15:29:00,42.8,18.4,29.92,WNW,292,5.8,-999.0,37,-99.99,,,0.00,Acu-Link.com,2013-02-02 20:29:00,
2013-02-02 15:45:00,43.2,16.8,29.91,NNE,22,3.7,-999.0,34,-99.99,,,0.00,Acu-Link.com,2013-02-02 20:45:00,
2013-02-02 16:00:00,43.2,17.4,29.90,SW,225,2.7,-999.0,35,-99.99,,,0.00,Acu-Link.com,2013-02-02 21:00:00,
2013-02-02 16:16:00,43.3,16.8,29.90,West,270,1.1,-999.0,34,-99.99,,,0.00,Acu-Link.com,2013-02-02 21:16:00,
2013-02-02 16:31:00,43.0,17.2,29.90,SE,135,1.7,-999.0,35,-99.99,,,0.00,Acu-Link.com,2013-02-02 21:31:00,
2013-02-02 16:46:00,42.4,18.0,29.90,WNW,292,0.0,-999.0,37,-99.99,,,0.00,Acu-Link.com,2013-02-02 21:46:00,
2013-02-02 17:02:00,42.1,18.3,29.89,ENE,67,0.0,-999.0,38,-99.99,,,0.00,Acu-Link.com,2013-02-02 22:02:00,
2013-02-02 17:17:00,41.7,18.6,29.89,NNE,22,0.0,-999.0,39,-99.99,,,0.00,Acu-Link.com,2013-02-02 22:17:00,
2013-02-02 17:32:00,41.4,19.5,29.88,SSW,202,0.0,-999.0,41,-99.99,,,0.00,Acu-Link.com,2013-02-02 22:32:00,
2013-02-02 17:47:00,40.8,20.6,29.87,NE,45,0.0,-999.0,44,-99.99,,,0.00,Acu-Link.com,2013-02-02 22:47:00,
2013-02-02 18:03:00,40.6,19.3,29.87,ESE,112,0.0,-999.0,42,-99.99,,,0.00,Acu-Link.com,2013-02-02 23:03:00,
2013-02-02 18:18:00,40.8,20.6,29.86,NE,45,0.0,-999.0,44,-99.99,,,0.00,Acu-Link.com,2013-02-02 23:18:00,
2013-02-02 18:34:00,41.0,19.7,29.87,WNW,292,1.7,-999.0,42,-99.99,,,0.00,Acu-Link.com,2013-02-02 23:34:00,
2013-02-02 18:49:00,41.9,21.6,29.86,West,270,0.0,-999.0,44,-99.99,,,0.00,Acu-Link.com,2013-02-02 23:49:00,
2013-02-02 19:04:00,41.9,19.9,29.85,NNE,22,2.2,-999.0,41,-99.99,,,0.00,Acu-Link.com,2013-02-03 00:04:00,
2013-02-02 19:20:00,42.1,21.2,29.84,NE,45,1.1,-999.0,43,-99.99,,,0.00,Acu-Link.com,2013-02-03 00:20:00,
2013-02-02 19:35:00,41.9,21.6,29.85,WNW,292,1.7,-999.0,44,-99.99,,,0.00,Acu-Link.com,2013-02-03 00:35:00,
2013-02-02 19:50:00,41.7,22.5,29.83,ESE,112,0.0,-999.0,46,-99.99,,,0.00,Acu-Link.com,2013-02-03 00:50:00,
2013-02-02 20:05:00,41.4,21.7,29.82,West,270,0.0,-999.0,45,-99.99,,,0.00,Acu-Link.com,2013-02-03 01:05:00,
2013-02-02 20:21:00,41.4,21.1,29.82,SE,135,0.0,-999.0,44,-99.99,,,0.00,Acu-Link.com,2013-02-03 01:21:00,
2013-02-02 20:36:00,41.4,21.7,29.82,South,180,2.2,-999.0,45,-99.99,,,0.00,Acu-Link.com,2013-02-03 01:36:00,
2013-02-02 20:51:00,41.4,23.7,29.82,East,90,0.0,-999.0,49,-99.99,,,0.00,Acu-Link.com,2013-02-03 01:51:00,
2013-02-02 21:07:00,41.5,22.3,29.82,NW,315,1.1,-999.0,46,-99.99,,,0.00,Acu-Link.com,2013-02-03 02:07:00,
2013-02-02 21:22:00,42.4,23.6,29.82,West,270,0.0,-999.0,47,-99.99,,,0.00,Acu-Link.com,2013-02-03 02:22:00,
2013-02-02 21:37:00,43.0,25.6,29.82,WNW,292,2.7,-999.0,50,-99.99,,,0.00,Acu-Link.com,2013-02-03 02:37:00,
2013-02-02 21:53:00,43.7,29.0,29.82,SW,225,3.2,-999.0,56,-99.99,,,0.00,Acu-Link.com,2013-02-03 02:53:00,
2013-02-02 22:08:00,44.1,30.3,29.81,West,270,2.2,-999.0,58,-99.99,,,0.00,Acu-Link.com,2013-02-03 03:08:00,
2013-02-02 22:23:00,44.1,32.3,29.82,WSW,247,4.7,-999.0,63,-99.99,,,0.00,Acu-Link.com,2013-02-03 03:23:00,
2013-02-02 22:39:00,43.9,32.5,29.81,ESE,112,4.7,-999.0,64,-99.99,,,0.00,Acu-Link.com,2013-02-03 03:39:00,
2013-02-02 22:54:00,43.7,31.9,29.81,SSE,157,3.7,-999.0,63,-99.99,,,0.00,Acu-Link.com,2013-02-03 03:54:00,
2013-02-02 23:09:00,43.5,33.3,29.82,ENE,67,2.7,-999.0,67,-99.99,,,0.00,Acu-Link.com,2013-02-03 04:09:00,
2013-02-02 23:25:00,43.2,36.5,29.81,WSW,247,3.2,-999.0,77,-99.99,,,0.00,Acu-Link.com,2013-02-03 04:25:00,
2013-02-02 23:40:00,42.4,37.6,29.81,WNW,292,3.2,-999.0,83,-99.99,,,0.00,Acu-Link.com,2013-02-03 04:40:00,
2013-02-02 23:55:00,42.3,38.1,29.80,WSW,247,2.7,-999.0,85,-99.99,,,0.00,Acu-Link.com,2013-02-03 04:55:00,